User: anonymous
Location: Unspecified
(0.0000°N, 0.0000°E)
Time: 21:01:05
(UTC+00:00)
Language:

AGILE - Orbit

View from above orbital plane
View from above orbital plane
View from above satellite
View from above satellite

Ground track
Ground track

The orbit data is extracted from the following two-line orbital elements,

1 31135U 07013A   14244.03268559  .00006469  00000-0  24069-3 0   425
2 31135 002.4638 093.2667 0015854 040.6801 319.4803 15.20477527407563
Epoch (UTC): 01 September 2014 00:47:04
Eccentricity: 0.0015854
inclination: 2.4638°
perigee height: 493 km
apogee height: 515 km
right ascension of ascending node: 93.2667°
argument of perigee: 40.6801°
revolutions per day: 15.20477527
mean anomaly at epoch: 319.4803°
orbit number at epoch: 40756

The dashed part of the orbit path shows where the satellite is in the earth's shadow,  

DLR